| time (UTC) | temp F | wind direction | speed MPH | gust MPH | rain 1hr in | rain 24hr in | rain mn in | humidity % | barometer mb |
| 20260905103024 | 77 | 360 | 7.0 | 12.0 | 0.00 | 0.00 | 0.00 | 64 | 1015.2 |
| 20260905101527 | 77 | 360 | 7.0 | 14.0 | 0.00 | 0.00 | 0.00 | 63 | 1015.2 |
| 20260905100023 | 77 | 360 | 6.0 | 11.0 | 0.00 | 0.00 | 0.00 | 64 | 1015.1 |
| 20260905094524 | 77 | 360 | 9.0 | 13.0 | 0.00 | 0.00 | 0.00 | 63 | 1015.2 |
| 20260905093020 | 77 | 360 | 6.0 | 11.0 | 0.00 | 0.00 | 0.00 | 61 | 1015.0 |
| 20260905091621 | 78 | 360 | 8.0 | 11.0 | 0.00 | 0.00 | 0.00 | 60 | 1015.0 |
| 20260905090017 | 78 | 360 | 5.0 | 12.0 | 0.00 | 0.00 | 0.00 | 59 | 1014.9 |
| 20260905084515 | 78 | 360 | 10.0 | 13.0 | 0.00 | 0.00 | 0.00 | 59 | 1015.1 |
| 20260905083019 | 79 | 360 | 8.0 | 14.0 | 0.00 | 0.00 | 0.00 | 57 | 1015.1 |
| 20260905081514 | 78 | 360 | 10.0 | 12.0 | 0.00 | 0.00 | 0.00 | 58 | 1014.9 |
| 20260905080012 | 79 | 360 | 10.0 | 13.0 | 0.00 | 0.00 | 0.00 | 58 | 1014.7 |
| 20260905074516 | 79 | 360 | 9.0 | 12.0 | 0.00 | 0.00 | 0.00 | 58 | 1015.1 |
| 20260905073010 | 79 | 360 | 9.0 | 12.0 | 0.00 | 0.00 | 0.00 | 57 | 1015.2 |
| 20260905071516 | 79 | 360 | 10.0 | 13.0 | 0.00 | 0.00 | 0.00 | 57 | 1015.0 |
| 20260905070008 | 79 | 360 | 8.0 | 12.0 | 0.00 | 0.00 | 0.00 | 56 | 1015.0 |
| 20260905064505 | 79 | 360 | 7.0 | 12.0 | 0.00 | 0.00 | 0.00 | 56 | 1015.1 |
| 20260905063003 | 79 | 169 | 6.0 | 9.0 | 0.00 | 0.00 | 0.00 | 56 | 1015.2 |
| 20260905061501 | 80 | 360 | 5.0 | 8.0 | 0.00 | 0.00 | 0.00 | 55 | 1015.0 |
| 20260905060100 | 80 | 360 | 4.0 | 14.0 | 0.00 | 0.00 | 0.00 | 54 | 1015.2 |
| 20260905054558 | 80 | 360 | 6.0 | 10.0 | 0.00 | 0.00 | 0.00 | 54 | 1015.0 |
| 20260905053054 | 80 | 360 | 3.0 | 9.0 | 0.00 | 0.00 | 0.00 | 54 | 1014.9 |
| 20260905051553 | 80 | 360 | 5.0 | 8.0 | 0.00 | 0.00 | 0.00 | 54 | 1014.7 |
| 20260905050050 | 81 | 360 | 2.0 | 6.0 | 0.00 | 0.00 | 0.00 | 52 | 1014.7 |
| 20260905044549 | 81 | 360 | 3.0 | 9.0 | 0.00 | 0.00 | 0.00 | 53 | 1014.8 |
| 20260905043049 | 82 | 360 | 4.0 | 18.0 | 0.00 | 0.00 | 0.00 | 50 | 1014.8 |
| 20260905041552 | 83 | 360 | 9.0 | 17.0 | 0.00 | 0.00 | 0.00 | 49 | 1015.0 |
| 20260905040054 | 83 | 360 | 10.0 | 17.0 | 0.00 | 0.00 | 0.00 | 47 | 1014.9 |
| 20260905034547 | 83 | 360 | 6.0 | 12.0 | 0.00 | 0.00 | 0.00 | 44 | 1015.0 |
| 20260905033047 | 83 | 360 | 12.0 | 14.0 | 0.00 | 0.00 | 0.00 | 47 | 1014.9 |
| 20260905031548 | 83 | 360 | 12.0 | 15.0 | 0.00 | 0.00 | 0.00 | 46 | 1014.7 |
| 20260905030048 | 82 | 360 | 9.0 | 12.0 | 0.00 | 0.00 | 0.00 | 47 | 1014.6 |
| 20260905024548 | 83 | 360 | 8.0 | 12.0 | 0.00 | 0.00 | 0.00 | 47 | 1014.5 |
| 20260905023047 | 82 | 360 | 10.0 | 12.0 | 0.00 | 0.00 | 0.00 | 47 | 1014.2 |
| 20260905021544 | 82 | 360 | 8.0 | 10.0 | 0.00 | 0.00 | 0.00 | 49 | 1013.6 |
| 20260905020044 | 82 | 360 | 5.0 | 8.0 | 0.00 | 0.00 | 0.00 | 49 | 1013.4 |
| 20260905014543 | 82 | 360 | 9.0 | 12.0 | 0.00 | 0.00 | 0.00 | 48 | 1013.2 |
| 20260905013043 | 82 | 360 | 7.0 | 11.0 | 0.00 | 0.00 | 0.00 | 48 | 1013.0 |
| 20260905011544 | 82 | 360 | 6.0 | 10.0 | 0.00 | 0.00 | 0.00 | 48 | 1012.8 |
| 20260905010045 | 82 | 360 | 11.0 | 15.0 | 0.00 | 0.00 | 0.00 | 48 | 1012.8 |
| 20260905004547 | 82 | 360 | 13.0 | 18.0 | 0.00 | 0.00 | 0.00 | 47 | 1012.7 |
| 20260905003046 | 83 | 360 | 15.0 | 19.0 | 0.00 | 0.00 | 0.00 | 47 | 1012.7 |
| 20260905001540 | 83 | 360 | 12.0 | 18.0 | 0.00 | 0.00 | 0.00 | 47 | 1012.6 |
| 20260905000039 | 83 | 360 | 12.0 | 17.0 | 0.00 | 0.00 | 0.00 | 48 | 1012.7 |
| 20260904234538 | 84 | 360 | 13.0 | 18.0 | 0.00 | 0.09 | 0.00 | 47 | 1013.0 |
| 20260904233038 | 85 | 360 | 11.0 | 17.0 | 0.00 | 0.09 | 0.00 | 47 | 1012.9 |
| 20260904231539 | 86 | 360 | 10.0 | 22.0 | 0.00 | 0.09 | 0.00 | 43 | 1012.8 |
| 20260904230059 | 86 | 360 | 8.0 | 17.0 | 0.00 | 0.09 | 0.00 | 43 | 1013.0 |
| 20260904224535 | 86 | 360 | 14.0 | 18.0 | 0.00 | 0.09 | 0.00 | 42 | 1013.1 |
| 20260904223036 | 86 | 360 | 13.0 | 20.0 | 0.00 | 0.09 | 0.00 | 46 | 1012.6 |
| 20260904221535 | 86 | 360 | 14.0 | 19.0 | 0.00 | 0.09 | 0.00 | 45 | 1012.3 |
| 20260904220035 | 87 | 360 | 15.0 | 22.0 | 0.00 | 0.09 | 0.00 | 44 | 1012.3 |
| 20260904214533 | 88 | 360 | 13.0 | 20.0 | 0.00 | 0.09 | 0.00 | 40 | 1012.3 |
| 20260904213033 | 88 | 360 | 16.0 | 22.0 | 0.00 | 0.09 | 0.00 | 40 | 1012.5 |
| 20260904211534 | 90 | 11 | 9.0 | 13.0 | 0.00 | 0.09 | 0.00 | 38 | 1012.1 |
| 20260904210031 | 91 | 292 | 2.0 | 4.0 | 0.00 | 0.09 | 0.00 | 35 | 1012.3 |
| 20260904204531 | 92 | 277 | 5.0 | 12.0 | 0.00 | 0.09 | 0.00 | 33 | 1012.5 |
| 20260904203029 | 94 | 315 | 8.0 | 13.0 | 0.00 | 0.09 | 0.00 | 31 | 1012.6 |
| 20260904201527 | 96 | 268 | 11.0 | 17.0 | 0.00 | 0.09 | 0.00 | 30 | 1012.7 |
| 20260904200025 | 97 | 273 | 10.0 | 14.0 | 0.00 | 0.09 | 0.00 | 30 | 1013.1 |
| 20260904194524 | 96 | 248 | 2.0 | 8.0 | 0.00 | 0.09 | 0.00 | 31 | 1013.4 |
| 20260904193034 | 95 | 232 | 2.0 | 5.0 | 0.00 | 0.09 | 0.00 | 32 | 1013.9 |
| 20260904191521 | 95 | 246 | 3.0 | 15.0 | 0.00 | 0.09 | 0.00 | 34 | 1014.1 |
| 20260904190032 | 92 | 275 | 1.0 | 6.0 | 0.00 | 0.09 | 0.00 | 35 | 1014.3 |
| 20260904184514 | 95 | 273 | 4.0 | 11.0 | 0.00 | 0.09 | 0.00 | 32 | 1014.4 |
| 20260904183011 | 92 | 300 | 2.0 | 6.0 | 0.00 | 0.09 | 0.00 | 36 | 1014.6 |
| 20260904181508 | 91 | 250 | 1.0 | 10.0 | 0.00 | 0.09 | 0.00 | 37 | 1014.9 |
| 20260904180006 | 91 | 360 | 4.0 | 10.0 | 0.00 | 0.09 | 0.00 | 37 | 1015.1 |
| 20260904174502 | 91 | 221 | 1.0 | 4.0 | 0.00 | 0.09 | 0.00 | 38 | 1015.4 |
| 20260904173100 | 92 | 175 | 2.0 | 8.0 | 0.00 | 0.09 | 0.00 | 37 | 1015.6 |
| 20260904171554 | 89 | 222 | 1.0 | 9.0 | 0.00 | 0.09 | 0.00 | 41 | 1015.5 |
| 20260904170053 | 88 | 212 | 4.0 | 7.0 | 0.00 | 0.09 | 0.00 | 39 | 1015.7 |
| 20260904164547 | 87 | 205 | 2.0 | 8.0 | 0.00 | 0.09 | 0.00 | 44 | 1016.0 |
| 20260904163042 | 86 | 209 | 4.0 | 8.0 | 0.00 | 0.09 | 0.00 | 44 | 1016.0 |
| 20260904161543 | 84 | 360 | 3.0 | 10.0 | 0.00 | 0.09 | 0.00 | 46 | 1016.0 |
| 20260904160038 | 84 | 187 | 3.0 | 10.0 | 0.00 | 0.09 | 0.00 | 48 | 1016.1 |
| 20260904154533 | 83 | 179 | 4.0 | 7.0 | 0.00 | 0.09 | 0.00 | 48 | 1016.1 |
| 20260904153037 | 82 | 196 | 5.0 | 7.0 | 0.00 | 0.09 | 0.00 | 51 | 1016.1 |
| 20260904151529 | 81 | 204 | 1.0 | 6.0 | 0.00 | 0.09 | 0.00 | 55 | 1016.3 |
| 20260904150028 | 78 | 225 | 6.0 | 8.0 | 0.00 | 0.09 | 0.00 | 56 | 1016.2 |
| 20260904144528 | 78 | 242 | 3.0 | 7.0 | 0.00 | 0.09 | 0.00 | 58 | 1016.1 |
| 20260904143023 | 77 | 360 | 2.0 | 4.0 | 0.00 | 0.09 | 0.00 | 59 | 1016.3 |
| 20260904141521 | 76 | 360 | 2.0 | 6.0 | 0.00 | 0.09 | 0.00 | 60 | 1016.2 |
| 20260904140019 | 76 | 360 | 4.0 | 6.0 | 0.00 | 0.09 | 0.00 | 61 | 1016.0 |
| 20260904134521 | 74 | 320 | 4.0 | 9.0 | 0.00 | 0.09 | 0.00 | 64 | 1015.8 |
| 20260904133013 | 74 | 360 | 6.0 | 11.0 | 0.00 | 0.09 | 0.00 | 64 | 1015.6 |
| 20260904131510 | 74 | 360 | 7.0 | 14.0 | 0.00 | 0.09 | 0.00 | 62 | 1015.3 |
| 20260904130014 | 75 | 360 | 11.0 | 15.0 | 0.00 | 0.09 | 0.00 | 60 | 1015.1 |
| 20260904124505 | 75 | 360 | 6.0 | 11.0 | 0.00 | 0.09 | 0.00 | 59 | 1015.1 |
| 20260904123012 | 75 | 355 | 7.0 | 10.0 | 0.00 | 0.09 | 0.00 | 59 | 1014.9 |
| 20260904121503 | 75 | 355 | 7.0 | 9.0 | 0.00 | 0.09 | 0.00 | 60 | 1014.8 |
| 20260904120001 | 75 | 350 | 6.0 | 10.0 | 0.00 | 0.09 | 0.00 | 60 | 1014.8 |
| 20260904114601 | 75 | 355 | 9.0 | 12.0 | 0.00 | 0.09 | 0.00 | 60 | 1014.8 |
| 20260904113059 | 74 | 351 | 7.0 | 10.0 | 0.00 | 0.09 | 0.00 | 61 | 1014.8 |
| 20260904111557 | 75 | 355 | 11.0 | 16.0 | 0.00 | 0.09 | 0.00 | 60 | 1014.7 |
| 20260904110057 | 75 | 360 | 14.0 | 19.0 | 0.00 | 0.09 | 0.00 | 59 | 1014.6 |
| 20260904104551 | 76 | 342 | 14.0 | 19.0 | 0.00 | 0.09 | 0.00 | 57 | 1014.6 |